[[{"header":{"parameterUnit":"m.s-1","parameterCategory":1,"la1":30.2991,"la2":30.254,"lo1":-89.0895,"lo2":-89.0444,"dy":0.0017,"dx":0.0017,"nx":28,"ny":28,"refTime":"2023-03-20T15:00:00:Z","depth":0,"parameterNumber":2,"parameterNumberName":"U-component_of_WINDS"},"data":[0,0,0,0,0,0,0,0,0,0,0,0,0,0,0,0,0,0,0,0,0,0,0,0,0,0,0,0,0,0,0,0,0,0,0,0,0,0,0,0,0,0,0,0,0,0,0,0,0,0,0,0,0,0,0,0,0,0,-3.6162,-3.6163,0,-3.6213,-3.6214,-3.6214,-3.6178,-3.6177,-3.6175,-3.6173,-3.6225,-3.6228,-3.6231,0,0,0,0,0,0,0,0,0,0,0,0,0,-3.6031,-3.6034,-3.6162,-3.6163,-3.6163,-3.6213,-3.6214,-3.6215,-3.6178,-3.6176,-3.6175,-3.6173,-3.6224,-3.6228,-3.6231,0,0,0,0,0,0,0,0,0,0,0,0,0,-3.6086,-3.6035,-3.6162,-3.6151,-3.6151,-3.6213,-3.6214,-3.6215,-3.6179,-3.6176,-3.6174,-3.6172,-3.6223,-3.6227,-3.6232,-3.6307,0,0,-3.6245,-3.6247,0,0,0,0,0,0,0,0,-3.6083,-3.6091,-3.6152,-3.6152,-3.6152,-3.6187,-3.6187,-3.6246,-3.6179,-3.6168,-3.6173,-3.6171,-3.6214,-3.6219,-3.6234,-3.6309,-3.6312,-3.6245,-3.6248,-3.625,-3.6251,0,0,0,0,0,0,0,-3.6079,-3.6088,-3.6182,-3.6153,-3.6153,-3.6143,-3.6149,-3.6198,-3.6204,-3.6169,-3.6166,-3.6173,-3.6214,-3.623,-3.6235,-3.6312,-3.6245,-3.6249,-3.6252,-3.6253,-3.645,-3.6453,0,0,0,0,0,0,-3.6076,-3.6085,-3.6181,-3.6184,-3.6111,-3.6148,-3.6153,-3.6178,-3.6204,-3.6205,-3.6175,-3.6171,-3.6224,-3.623,-3.6237,-3.6325,-3.625,-3.6254,-3.6256,-3.6448,-3.6451,-3.6454,0,0,0,0,0,0,-3.6074,-3.6085,-3.6178,-3.6134,-3.6145,-3.6153,-3.618,-3.618,-3.6197,-3.6208,-3.6209,-3.6191,-3.6222,-3.6231,-3.6289,-3.6327,-3.6256,-3.626,-3.6445,-3.6449,-3.6452,-3.6503,0,0,0,0,0,0,-3.607,-3.6084,-3.6113,-3.6135,-3.6148,-3.6231,-3.6183,-3.6183,-3.6204,-3.62,-3.6223,-3.6225,-3.6221,-3.6283,-3.6294,-3.6331,-3.6263,-3.6441,-3.6446,-3.6451,-3.6498,-3.6509,-3.6517,0,0,0,0,0,-3.6066,-3.6126,-3.6115,-3.6127,-3.6184,-3.6233,-3.624,-3.6235,-3.6207,-3.6236,-3.6244,-3.6224,-3.6321,-3.629,-3.6301,-3.634,-3.6439,-3.6445,-3.6451,-3.6494,-3.6507,-3.6517,0,0,0,0,0,0,-3.6109,-3.6129,-3.6117,-3.6186,-3.6208,-3.6227,-3.6263,-3.6249,-3.6279,-3.6273,-3.6265,-3.6271,-3.6332,-3.6342,-3.6307,-3.6414,-3.6376,-3.6384,-3.6405,-3.6417,-3.6426,-3.6421,-3.6267,0,0,0,0,0,-3.6126,-3.6165,-3.618,-3.624,-3.6251,-3.6255,-3.6277,-3.6271,-3.6293,-3.6302,-3.6314,-3.6336,-3.6371,-3.6395,-3.6428,-3.65,-3.6504,-3.6533,-3.6543,-3.655,-3.6557,-3.6594,-3.6607,-3.6473,-3.6473,-3.6473,0,0,-3.6163,-3.6178,-3.6203,-3.6249,-3.6265,-3.6304,-3.6263,-3.6307,-3.6336,-3.6309,-3.6364,-3.6374,-3.6398,-3.6463,-3.6493,-3.6474,-3.6595,-3.6558,-3.6564,-3.6567,-3.6602,-3.6614,-3.6626,-3.6477,-3.6476,-3.6476,0,0,-3.6249,-3.6266,-3.6316,-3.6333,-3.6359,-3.6361,-3.6373,-3.6394,-3.6399,-3.6455,-3.6436,-3.647,-3.6531,-3.6549,-3.6566,-3.6659,-3.6641,-3.667,-3.6719,-3.6755,-3.6766,-3.6775,-3.6806,-3.6818,-3.6677,-3.6677,-3.6678,0,-3.6291,-3.6349,-3.6344,-3.6389,-3.6408,-3.6386,-3.6437,-3.6454,-3.6489,-3.6503,-3.6482,-3.6558,-3.6573,-3.6641,-3.6663,-3.6679,-3.6691,-3.6666,-3.6765,-3.6774,-3.6783,-3.6812,-3.6824,-3.6681,-3.668,-3.668,-3.668,0,-3.6399,-3.644,-3.6478,-3.6512,-3.6536,-3.6584,-3.6585,-3.661,-3.6603,-3.6607,-3.6664,-3.6681,-3.6717,-3.6733,-3.6726,-3.68,-3.6787,-3.6766,-3.6727,-3.6799,-3.6826,-3.6838,-3.6685,-3.6684,-3.6683,-3.6682,0,0,-3.6512,-3.6543,-3.6557,-3.6571,-3.6598,-3.6629,-3.6676,-3.6711,-3.6732,-3.6757,-3.6795,-3.6847,-3.6827,-3.6846,-3.6841,-3.6874,-3.6944,-3.6848,-3.6848,-3.6863,-3.7025,-3.7039,-3.7053,-3.6933,-3.6935,-3.6937,-3.7022,0,-3.6598,-3.6679,-3.6675,-3.675,-3.6787,-3.6767,-3.6807,-3.6827,-3.6833,-3.6865,-3.6871,-3.6907,-3.6879,-3.689,-3.6922,-3.6929,-3.6976,-3.6923,-3.6967,-3.6968,-3.6959,-3.7067,-3.7083,-3.7162,-3.7033,-3.7035,-3.7036,0,-3.6709,-3.6738,-3.6817,-3.6837,-3.6852,-3.6888,-3.6919,-3.6951,-3.6973,-3.6975,-3.6996,-3.6986,-3.7032,-3.6993,-3.7056,-3.702,-3.7038,-3.7044,-3.7047,-3.7049,-3.7005,-3.7071,-3.7188,-3.7199,-3.7054,-3.7052,-3.7051,0,-3.6781,-3.684,-3.6894,-3.6908,-3.6933,-3.6959,-3.697,-3.699,-3.7011,-3.7039,-3.7052,-3.7085,-3.7102,-3.7128,-3.7126,-3.7098,-3.7189,-3.7151,-3.719,-3.719,-3.7209,-3.7207,-3.7328,-3.7224,-3.7224,-3.7224,-3.7223,0,-3.6877,-3.6925,-3.6927,-3.696,-3.7013,-3.7009,-3.7062,-3.7071,-3.7089,-3.7123,-3.7108,-3.714,-3.7137,-3.7169,-3.7168,-3.7219,-3.7228,-3.7229,-3.7228,-3.7229,-3.7229,-3.7239,-3.7233,-3.7227,-3.7226,-3.7225,-3.7225,0,-3.6965,-3.6969,-3.7026,-3.7046,-3.7052,-3.709,-3.7106,-3.7137,-3.7142,-3.7185,-3.7195,-3.7202,-3.7239,-3.724,-3.7283,-3.7282,-3.7344,-3.7338,-3.7336,-3.7334,-3.7373,-3.7368,-3.7503,-3.752,-3.7407,-3.7408,-3.7409,0,-3.7025,-3.7062,-3.7085,-3.7107,-3.712,-3.7155,-3.7177,-3.7174,-3.7196,-3.7224,-3.7252,-3.7288,-3.7316,-3.7376,-3.7384,-3.7417,-3.741,-3.7455,-3.7415,-3.7414,-3.7408,-3.7405,-3.7408,-3.7462,-3.7463,-3.7464,-3.7465,0,-3.7129,-3.7129,-3.716,-3.7193,-3.7218,-3.7243,-3.7267,-3.7285,-3.7285,-3.7311,-3.7349,-3.7371,-3.7415,-3.745,-3.7481,-3.7493,-3.7478,-3.7478,-3.7489,-3.7489,-3.7486,-3.7486,-3.7355,-3.7475,-3.7474,-3.7473,-3.7473,-3.7472,-3.7204,-3.7235,-3.7256,-3.7291,-3.7308,-3.733,-3.736,-3.7368,-3.74,-3.7435,-3.7431,-3.7473,-3.7494,-3.7534,-3.7549,-3.7581,-3.7565,-3.7581,-3.7584,-3.7588,-3.7591,-3.7483,-3.7587,-3.7586,-3.7586,-3.7586,-3.7586,0,-3.7305,-3.7318,-3.735,-3.7383,-3.7411,-3.7396,-3.7421,-3.7445,-3.7482,-3.7502,-3.753,-3.7573,-3.7607,-3.7619,-3.7652,-3.7675,-3.7669,-3.7683,-3.768,-3.7683,-3.7604,-3.7591,-3.7687,-3.7687,-3.7687,-3.7687,-3.7687,-3.7687,-3.7361,-3.7412,-3.7415,-3.7474,-3.7486,-3.7527,-3.7542,-3.7562,-3.7578,-3.7627,-3.7655,-3.7662,-3.7679,-3.7713,-3.7743,-3.7746,-3.7757,-3.7774,-3.7774,-3.7699,-3.7689,-3.7679,-3.7666,-3.7777,-3.7777,-3.7849,-3.785,-3.7851]},{"header":{"parameterUnit":"m.s-1","parameterCategory":1,"la1":30.2991,"la2":30.254,"lo1":-89.0895,"lo2":-89.0444,"dy":0.0017,"dx":0.0017,"nx":28,"ny":28,"refTime":"2023-03-20T15:00:00:Z","depth":0,"parameterNumber":3,"parameterNumberName":"V-component_of_WINDS"},"data":[0,0,0,0,0,0,0,0,0,0,0,0,0,0,0,0,0,0,0,0,0,0,0,0,0,0,0,0,0,0,0,0,0,0,0,0,0,0,0,0,0,0,0,0,0,0,0,0,0,0,0,0,0,0,0,0,0,0,-1.0087,-1.0086,0,-1.0042,-1.0042,-1.0041,-1.0064,-1.0065,-1.0066,-1.0067,-1.0017,-1.0015,-1.0013,0,0,0,0,0,0,0,0,0,0,0,0,0,-1.0185,-1.0183,-1.0087,-1.0086,-1.0086,-1.0042,-1.0041,-1.0041,-1.0063,-1.0065,-1.0066,-1.0068,-1.0018,-1.0015,-1.0012,0,0,0,0,0,0,0,0,0,0,0,0,0,-1.0142,-1.0183,-1.0087,-1.0092,-1.0092,-1.0042,-1.0041,-1.0041,-1.0063,-1.0065,-1.0067,-1.0068,-1.0019,-1.0016,-1.0012,-0.9954,0,0,-1.0001,-0.9999,0,0,0,0,0,0,0,0,-1.0144,-1.0138,-1.0091,-1.0091,-1.0091,-1.006,-1.0058,-1.0011,-1.0063,-1.0074,-1.0067,-1.0069,-1.003,-1.0025,-1.0013,-0.9951,-0.9949,-1.0,-0.9998,-0.9997,-0.9996,0,0,0,0,0,0,0,-1.0147,-1.014,-1.0069,-1.0091,-1.0091,-1.0094,-1.009,-1.0049,-1.0042,-1.0073,-1.0075,-1.0069,-1.003,-1.0017,-1.0012,-0.9949,-1.0001,-0.9997,-0.9995,-0.9994,-0.9832,-0.983,0,0,0,0,0,0,-1.0151,-1.0142,-1.007,-1.0068,-1.0123,-1.0091,-1.0086,-1.0068,-1.0043,-1.0041,-1.0068,-1.007,-1.0022,-1.0016,-1.001,-0.9936,-0.9997,-0.9993,-0.9991,-0.9834,-0.9831,-0.9829,0,0,0,0,0,0,-1.0153,-1.0144,-1.0072,-1.0105,-1.0097,-1.0087,-1.0067,-1.0066,-1.0053,-1.0039,-1.0037,-1.0055,-1.0023,-1.0016,-0.9967,-0.9935,-0.9992,-0.9988,-0.9836,-0.9833,-0.983,-0.979,0,0,0,0,0,0,-1.0155,-1.0145,-1.0124,-1.0105,-1.0095,-1.0031,-1.0065,-1.0064,-1.0047,-1.005,-1.0027,-1.0025,-1.0024,-0.9972,-0.9963,-0.9931,-0.9985,-0.9839,-0.9835,-0.9831,-0.9794,-0.9786,-0.9779,0,0,0,0,0,-1.0159,-1.0115,-1.0123,-1.0114,-1.0069,-1.0029,-1.0023,-1.0024,-1.0045,-1.0022,-1.0013,-1.0025,-0.9941,-0.9967,-0.9957,-0.9923,-0.9841,-0.9836,-0.9831,-0.9798,-0.9788,-0.9779,0,0,0,0,0,0,-1.0129,-1.0112,-1.0121,-1.007,-1.0051,-1.0033,-1.0005,-1.0014,-0.9988,-0.9992,-0.9993,-0.9988,-0.9936,-0.9926,-0.9955,-0.9863,-0.9894,-0.9887,-0.9871,-0.9862,-0.9855,-0.9856,-0.9982,0,0,0,0,0,-1.0117,-1.0088,-1.0074,-1.003,-1.002,-1.0014,-0.9997,-0.9999,-0.9979,-0.9971,-0.9958,-0.9936,-0.9904,-0.9883,-0.9854,-0.9794,-0.9787,-0.9766,-0.9758,-0.9752,-0.9745,-0.9707,-0.9696,-0.9813,-0.9813,-0.9813,0,0,-1.0091,-1.0078,-1.0059,-1.0024,-1.0009,-0.9976,-1.0007,-0.9972,-0.9946,-0.9965,-0.9917,-0.9907,-0.9883,-0.9827,-0.9802,-0.9817,-0.9711,-0.9746,-0.9741,-0.9737,-0.9701,-0.969,-0.968,-0.981,-0.9811,-0.9811,0,0,-1.0025,-1.0015,-0.9974,-0.9959,-0.9937,-0.9933,-0.9923,-0.9904,-0.9898,-0.985,-0.9862,-0.9832,-0.9778,-0.9759,-0.9742,-0.9667,-0.9676,-0.9658,-0.9616,-0.958,-0.957,-0.9562,-0.953,-0.9519,-0.9651,-0.9651,-0.9651,0,-0.9994,-0.9947,-0.9952,-0.9915,-0.9897,-0.9914,-0.9871,-0.9856,-0.9824,-0.981,-0.9828,-0.9758,-0.9744,-0.9681,-0.9663,-0.9651,-0.9636,-0.9658,-0.9572,-0.9563,-0.9556,-0.9525,-0.9513,-0.9649,-0.9649,-0.9649,-0.9649,0,-0.9908,-0.9875,-0.9845,-0.9814,-0.9793,-0.9754,-0.975,-0.9728,-0.9732,-0.9726,-0.9674,-0.9658,-0.9622,-0.9609,-0.9613,-0.9546,-0.9555,-0.9572,-0.9602,-0.9542,-0.9513,-0.9501,-0.9645,-0.9646,-0.9647,-0.9647,0,0,-0.982,-0.9793,-0.9781,-0.9765,-0.9742,-0.9715,-0.9675,-0.9641,-0.962,-0.9598,-0.9561,-0.9515,-0.9529,-0.951,-0.9513,-0.9481,-0.9416,-0.9502,-0.9501,-0.9482,-0.9334,-0.9317,-0.9304,-0.9424,-0.9422,-0.942,-0.9335,0,-0.9749,-0.9679,-0.9682,-0.9616,-0.9582,-0.9597,-0.9562,-0.9541,-0.9534,-0.9503,-0.9495,-0.9459,-0.9485,-0.9472,-0.9442,-0.943,-0.9386,-0.9437,-0.9385,-0.9383,-0.9385,-0.929,-0.9273,-0.9193,-0.9324,-0.9322,-0.9321,0,-0.9656,-0.963,-0.9561,-0.9539,-0.9525,-0.9493,-0.946,-0.9432,-0.9408,-0.9404,-0.9382,-0.9388,-0.9344,-0.9378,-0.9315,-0.9349,-0.9329,-0.9319,-0.9316,-0.9307,-0.9344,-0.9273,-0.9168,-0.9154,-0.9304,-0.9305,-0.9307,0,-0.9592,-0.9541,-0.9491,-0.9478,-0.9453,-0.9429,-0.9417,-0.9396,-0.9374,-0.9346,-0.9331,-0.9298,-0.9278,-0.9251,-0.9246,-0.9273,-0.918,-0.9215,-0.9172,-0.9171,-0.9148,-0.9148,-0.9032,-0.9143,-0.9143,-0.9144,-0.9144,0,-0.9509,-0.9464,-0.9462,-0.9431,-0.938,-0.9383,-0.9332,-0.9322,-0.9302,-0.9267,-0.928,-0.9246,-0.9245,-0.9209,-0.9206,-0.915,-0.9143,-0.9136,-0.9134,-0.9131,-0.9131,-0.9114,-0.9117,-0.914,-0.9141,-0.9142,-0.9142,0,-0.9427,-0.9425,-0.937,-0.9351,-0.9345,-0.9308,-0.9289,-0.9258,-0.9252,-0.9207,-0.9197,-0.9186,-0.9145,-0.9139,-0.9091,-0.9089,-0.902,-0.9028,-0.9028,-0.9027,-0.8981,-0.8983,-0.8845,-0.8825,-0.8955,-0.8953,-0.8952,0,-0.9372,-0.9338,-0.9314,-0.9292,-0.9279,-0.9243,-0.9221,-0.9223,-0.9199,-0.9168,-0.9139,-0.9099,-0.9067,-0.9,-0.8986,-0.8948,-0.8951,-0.8905,-0.8945,-0.8942,-0.8943,-0.8943,-0.8937,-0.8896,-0.8894,-0.8893,-0.8893,0,-0.9272,-0.9272,-0.924,-0.9207,-0.9181,-0.9155,-0.913,-0.9111,-0.9109,-0.908,-0.9039,-0.9014,-0.8964,-0.8922,-0.8884,-0.8869,-0.8878,-0.8881,-0.8867,-0.8861,-0.886,-0.8854,-0.9,-0.8883,-0.8884,-0.8884,-0.8885,-0.8885,-0.9198,-0.9166,-0.9144,-0.9107,-0.9089,-0.9065,-0.9033,-0.9023,-0.8989,-0.8949,-0.8952,-0.8904,-0.8878,-0.8829,-0.8811,-0.8771,-0.8786,-0.8768,-0.8763,-0.8757,-0.8749,-0.8871,-0.8765,-0.8766,-0.8766,-0.8766,-0.8766,0,-0.9093,-0.9079,-0.9046,-0.9011,-0.8981,-0.8996,-0.8969,-0.8941,-0.89,-0.8876,-0.8844,-0.8793,-0.8752,-0.8736,-0.8695,-0.8666,-0.8669,-0.8655,-0.8654,-0.8649,-0.8742,-0.8754,-0.8653,-0.8653,-0.8653,-0.8653,-0.8653,-0.8653,-0.9035,-0.8981,-0.8977,-0.8913,-0.8899,-0.8853,-0.8836,-0.8812,-0.8793,-0.8736,-0.8703,-0.8693,-0.867,-0.8627,-0.8589,-0.8585,-0.8566,-0.8549,-0.8546,-0.8632,-0.8643,-0.8654,-0.8665,-0.8547,-0.8546,-0.8455,-0.8455,-0.8454]}]]